| time (UTC) | temp C | wind direction | speed KPH | gust KPH | rain 1hr cm | rain 24hr cm | rain mn cm | humidity % | barometer mb |
| 20260904191230 | 8 | 314 | 6.4 | 8.0 | 0.00 | 0.00 | 0.00 | 97 | 952.8 |
| 20260904190730 | 8 | 311 | 6.4 | 8.0 | 0.00 | 0.00 | 0.00 | 97 | 952.9 |
| 20260904190229 | 8 | 332 | 6.4 | 8.0 | 0.00 | 0.00 | 0.00 | 96 | 952.8 |
| 20260904185729 | 8 | 305 | 6.4 | 8.0 | 0.00 | 0.00 | 0.00 | 96 | 952.8 |
| 20260904185229 | 8 | 311 | 6.4 | 9.7 | 0.00 | 0.00 | 0.00 | 95 | 952.8 |
| 20260904184729 | 8 | 307 | 6.4 | 9.7 | 0.00 | 0.00 | 0.00 | 94 | 952.9 |
| 20260904184229 | 8 | 313 | 6.4 | 9.7 | 0.00 | 0.00 | 0.00 | 94 | 952.9 |
| 20260904183729 | 9 | 314 | 6.4 | 11.3 | 0.00 | 0.00 | 0.00 | 93 | 953.0 |
| 20260904183229 | 9 | 308 | 6.4 | 11.3 | 0.00 | 0.00 | 0.00 | 91 | 952.9 |
| 20260904182729 | 9 | 302 | 6.4 | 12.9 | 0.00 | 0.00 | 0.00 | 91 | 952.8 |
| 20260904182229 | 9 | 304 | 6.4 | 12.9 | 0.00 | 0.00 | 0.00 | 90 | 952.8 |
| 20260904181729 | 10 | 317 | 6.4 | 12.9 | 0.00 | 0.00 | 0.00 | 88 | 952.8 |
| 20260904181229 | 10 | 314 | 6.4 | 9.7 | 0.00 | 0.00 | 0.00 | 88 | 952.8 |
| 20260904180729 | 10 | 315 | 6.4 | 8.0 | 0.00 | 0.00 | 0.00 | 87 | 952.8 |
| 20260904180229 | 10 | 311 | 6.4 | 11.3 | 0.00 | 0.00 | 0.00 | 86 | 952.9 |
| 20260904175729 | 10 | 320 | 6.4 | 11.3 | 0.00 | 0.00 | 0.00 | 85 | 952.8 |
| 20260904175229 | 10 | 303 | 4.8 | 8.0 | 0.00 | 0.00 | 0.00 | 84 | 952.7 |
| 20260904174729 | 10 | 302 | 4.8 | 8.0 | 0.00 | 0.00 | 0.00 | 83 | 952.7 |
| 20260904174228 | 10 | 302 | 6.4 | 9.7 | 0.00 | 0.00 | 0.00 | 83 | 952.6 |
| 20260904173728 | 11 | 301 | 4.8 | 9.7 | 0.00 | 0.00 | 0.00 | 81 | 952.6 |
| 20260904173228 | 11 | 312 | 4.8 | 8.0 | 0.00 | 0.00 | 0.00 | 81 | 952.7 |
| 20260904172728 | 11 | 309 | 4.8 | 9.7 | 0.00 | 0.00 | 0.00 | 81 | 952.5 |
| 20260904171728 | 11 | 323 | 6.4 | 12.9 | 0.00 | 0.00 | 0.00 | 79 | 952.6 |
| 20260904171228 | 11 | 308 | 6.4 | 11.3 | 0.00 | 0.00 | 0.00 | 78 | 952.6 |
| 20260904170728 | 11 | 300 | 6.4 | 11.3 | 0.00 | 0.00 | 0.00 | 78 | 952.6 |
| 20260904170228 | 11 | 309 | 6.4 | 11.3 | 0.00 | 0.00 | 0.00 | 79 | 952.6 |
| 20260904165728 | 12 | 312 | 6.4 | 12.9 | 0.00 | 0.00 | 0.00 | 78 | 952.7 |
| 20260904165228 | 12 | 315 | 6.4 | 12.9 | 0.00 | 0.00 | 0.00 | 78 | 952.7 |
| 20260904164728 | 12 | 336 | 6.4 | 11.3 | 0.00 | 0.00 | 0.00 | 77 | 952.7 |
| 20260904164228 | 12 | 294 | 6.4 | 11.3 | 0.00 | 0.00 | 0.00 | 77 | 952.8 |
| 20260904163728 | 12 | 297 | 6.4 | 12.9 | 0.00 | 0.00 | 0.00 | 78 | 952.7 |
| 20260904163227 | 12 | 310 | 6.4 | 14.5 | 0.00 | 0.00 | 0.00 | 77 | 952.8 |
| 20260904162727 | 12 | 344 | 8.0 | 14.5 | 0.00 | 0.00 | 0.00 | 75 | 952.8 |
| 20260904162227 | 12 | 349 | 8.0 | 14.5 | 0.00 | 0.00 | 0.00 | 75 | 952.8 |
| 20260904161727 | 12 | 326 | 8.0 | 14.5 | 0.00 | 0.00 | 0.00 | 73 | 952.7 |
| 20260904161227 | 12 | 350 | 6.4 | 14.5 | 0.00 | 0.00 | 0.00 | 72 | 952.8 |
| 20260904160727 | 13 | 26 | 6.4 | 14.5 | 0.00 | 0.00 | 0.00 | 71 | 952.8 |
| 20260904160227 | 13 | 294 | 6.4 | 14.5 | 0.00 | 0.00 | 0.00 | 71 | 952.8 |
| 20260904155727 | 13 | 328 | 6.4 | 14.5 | 0.00 | 0.00 | 0.00 | 68 | 952.8 |
| 20260904155227 | 13 | 24 | 4.8 | 11.3 | 0.00 | 0.00 | 0.00 | 69 | 952.8 |
| 20260904154727 | 13 | 334 | 6.4 | 11.3 | 0.00 | 0.00 | 0.00 | 71 | 952.8 |
| 20260904154227 | 13 | 23 | 6.4 | 12.9 | 0.00 | 0.00 | 0.00 | 69 | 952.7 |
| 20260904153727 | 13 | 336 | 6.4 | 14.5 | 0.00 | 0.00 | 0.00 | 69 | 952.7 |
| 20260904153227 | 13 | 287 | 6.4 | 14.5 | 0.00 | 0.00 | 0.00 | 68 | 952.9 |
| 20260904152727 | 13 | 324 | 6.4 | 11.3 | 0.00 | 0.00 | 0.00 | 68 | 952.9 |
| 20260904152226 | 13 | 305 | 4.8 | 11.3 | 0.00 | 0.00 | 0.00 | 69 | 953.0 |
| 20260904151726 | 13 | 335 | 4.8 | 11.3 | 0.00 | 0.00 | 0.00 | 68 | 953.0 |
| 20260904151226 | 13 | 282 | 4.8 | 9.7 | 0.00 | 0.00 | 0.00 | 68 | 952.9 |
| 20260904150726 | 13 | 326 | 4.8 | 12.9 | 0.00 | 0.00 | 0.00 | 67 | 953.0 |
| 20260904150226 | 13 | 19 | 6.4 | 12.9 | 0.00 | 0.00 | 0.00 | 68 | 953.1 |
| 20260904145726 | 13 | 284 | 6.4 | 16.1 | 0.00 | 0.00 | 0.00 | 69 | 953.1 |
| 20260904145226 | 13 | 70 | 6.4 | 16.1 | 0.00 | 0.00 | 0.00 | 69 | 953.1 |
| 20260904144726 | 13 | 315 | 6.4 | 16.1 | 0.00 | 0.00 | 0.00 | 71 | 953.1 |
| 20260904144226 | 13 | 353 | 6.4 | 16.1 | 0.00 | 0.00 | 0.00 | 69 | 953.0 |
| 20260904143726 | 13 | 309 | 8.0 | 17.7 | 0.00 | 0.00 | 0.00 | 69 | 953.0 |
| 20260904143226 | 13 | 46 | 8.0 | 17.7 | 0.00 | 0.00 | 0.00 | 68 | 953.0 |
| 20260904142726 | 13 | 315 | 9.7 | 22.5 | 0.00 | 0.00 | 0.00 | 66 | 953.2 |
| 20260904142226 | 13 | 288 | 8.0 | 24.1 | 0.00 | 0.00 | 0.00 | 67 | 953.1 |
| 20260904141726 | 13 | 36 | 8.0 | 24.1 | 0.00 | 0.00 | 0.00 | 66 | 953.2 |
| 20260904141226 | 13 | 296 | 8.0 | 14.5 | 0.00 | 0.00 | 0.00 | 68 | 953.3 |
| 20260904140726 | 13 | 318 | 8.0 | 14.5 | 0.00 | 0.00 | 0.00 | 72 | 953.2 |
| 20260904140225 | 13 | 319 | 8.0 | 17.7 | 0.00 | 0.00 | 0.00 | 73 | 953.2 |
| 20260904135725 | 13 | 6 | 8.0 | 17.7 | 0.00 | 0.00 | 0.00 | 72 | 953.2 |
| 20260904135225 | 14 | 329 | 8.0 | 17.7 | 0.00 | 0.00 | 0.00 | 69 | 953.3 |
| 20260904134725 | 14 | 351 | 9.7 | 17.7 | 0.00 | 0.00 | 0.00 | 69 | 953.3 |
| 20260904134225 | 15 | 14 | 8.0 | 17.7 | 0.00 | 0.00 | 0.00 | 68 | 953.3 |
| 20260904133725 | 14 | 274 | 9.7 | 17.7 | 0.00 | 0.00 | 0.00 | 70 | 953.4 |
| 20260904133225 | 14 | 300 | 9.7 | 16.1 | 0.00 | 0.00 | 0.00 | 73 | 953.4 |
| 20260904132725 | 13 | 298 | 11.3 | 19.3 | 0.00 | 0.00 | 0.00 | 71 | 953.5 |
| 20260904132225 | 13 | 288 | 11.3 | 20.9 | 0.00 | 0.00 | 0.00 | 72 | 953.4 |
| 20260904131725 | 13 | 273 | 11.3 | 20.9 | 0.00 | 0.00 | 0.00 | 75 | 953.5 |
| 20260904131225 | 14 | 293 | 8.0 | 17.7 | 0.00 | 0.00 | 0.00 | 70 | 953.6 |
| 20260904130725 | 15 | 0 | 8.0 | 17.7 | 0.00 | 0.00 | 0.00 | 66 | 953.7 |
| 20260904130225 | 15 | 78 | 6.4 | 17.7 | 0.00 | 0.00 | 0.00 | 60 | 953.6 |
| 20260904125725 | 15 | 6 | 4.8 | 16.1 | 0.00 | 0.00 | 0.00 | 60 | 953.8 |
| 20260904125224 | 15 | 71 | 6.4 | 17.7 | 0.00 | 0.00 | 0.00 | 63 | 953.8 |
| 20260904124724 | 15 | 68 | 8.0 | 17.7 | 0.00 | 0.00 | 0.00 | 60 | 953.7 |
| 20260904124224 | 15 | 32 | 8.0 | 17.7 | 0.00 | 0.00 | 0.00 | 69 | 953.8 |
| 20260904123724 | 14 | 69 | 9.7 | 17.7 | 0.00 | 0.00 | 0.00 | 62 | 953.8 |
| 20260904123224 | 14 | 51 | 9.7 | 17.7 | 0.00 | 0.00 | 0.00 | 67 | 953.9 |
| 20260904122724 | 15 | 326 | 6.4 | 17.7 | 0.00 | 0.00 | 0.00 | 67 | 954.0 |
| 20260904122224 | 15 | 57 | 8.0 | 17.7 | 0.00 | 0.00 | 0.00 | 70 | 954.0 |
| 20260904121724 | 14 | 58 | 9.7 | 19.3 | 0.00 | 0.00 | 0.00 | 73 | 954.0 |
| 20260904121224 | 13 | 66 | 9.7 | 19.3 | 0.00 | 0.00 | 0.00 | 69 | 954.0 |
| 20260904120724 | 15 | 74 | 8.0 | 17.7 | 0.00 | 0.00 | 0.00 | 67 | 954.1 |
| 20260904120224 | 15 | 24 | 4.8 | 12.9 | 0.00 | 0.00 | 0.00 | 73 | 954.2 |
| 20260904115654 | 15 | 358 | 4.8 | 12.9 | 0.00 | 0.00 | 0.00 | 73 | 954.2 |
| 20260904115154 | 14 | 359 | 3.2 | 9.7 | 0.00 | 0.00 | 0.00 | 75 | 954.3 |
| 20260904114654 | 13 | 31 | 3.2 | 8.0 | 0.00 | 0.00 | 0.00 | 75 | 954.1 |
| 20260904114154 | 13 | 311 | 3.2 | 8.0 | 0.00 | 0.00 | 0.00 | 77 | 954.2 |
| 20260904113654 | 13 | 336 | 3.2 | 9.7 | 0.00 | 0.00 | 0.00 | 77 | 954.1 |
| 20260904113154 | 13 | 64 | 4.8 | 11.3 | 0.00 | 0.00 | 0.00 | 77 | 954.2 |
| 20260904112654 | 13 | 312 | 6.4 | 14.5 | 0.00 | 0.00 | 0.00 | 78 | 954.2 |
| 20260904112153 | 13 | 307 | 6.4 | 14.5 | 0.00 | 0.00 | 0.00 | 77 | 954.2 |
| 20260904111653 | 13 | 306 | 6.4 | 14.5 | 0.00 | 0.00 | 0.00 | 78 | 954.3 |
| 20260904111153 | 13 | 349 | 4.8 | 14.5 | 0.00 | 0.00 | 0.00 | 77 | 954.3 |
| 20260904110653 | 13 | 290 | 4.8 | 12.9 | 0.00 | 0.00 | 0.00 | 78 | 954.3 |
| 20260904110153 | 12 | 260 | 4.8 | 12.9 | 0.00 | 0.00 | 0.00 | 79 | 954.3 |
| 20260904105653 | 13 | 74 | 4.8 | 12.9 | 0.00 | 0.00 | 0.00 | 78 | 954.3 |
| 20260904105153 | 13 | 346 | 4.8 | 12.9 | 0.00 | 0.00 | 0.00 | 77 | 954.4 |
| 20260904104653 | 14 | 1 | 4.8 | 12.9 | 0.00 | 0.00 | 0.00 | 78 | 954.6 |
| 20260904104153 | 13 | 359 | 3.2 | 11.3 | 0.00 | 0.00 | 0.00 | 83 | 954.4 |
| 20260904103653 | 12 | 338 | 4.8 | 12.9 | 0.00 | 0.00 | 0.00 | 82 | 954.3 |
| 20260904103153 | 12 | 63 | 4.8 | 12.9 | 0.00 | 0.00 | 0.00 | 83 | 954.3 |
| 20260904102653 | 12 | 19 | 4.8 | 11.3 | 0.00 | 0.00 | 0.00 | 81 | 954.4 |
| 20260904102153 | 12 | 345 | 4.8 | 11.3 | 0.00 | 0.00 | 0.00 | 83 | 954.4 |
| 20260904101653 | 12 | 20 | 6.4 | 12.9 | 0.00 | 0.00 | 0.00 | 84 | 954.4 |
| 20260904101152 | 12 | 5 | 6.4 | 12.9 | 0.00 | 0.00 | 0.00 | 84 | 954.5 |
| 20260904100652 | 12 | 278 | 4.8 | 12.9 | 0.00 | 0.00 | 0.00 | 83 | 954.5 |
| 20260904100152 | 12 | 12 | 6.4 | 14.5 | 0.00 | 0.00 | 0.00 | 81 | 954.5 |
| 20260904095652 | 12 | 297 | 6.4 | 14.5 | 0.00 | 0.00 | 0.00 | 87 | 954.7 |
| 20260904095152 | 12 | 17 | 6.4 | 17.7 | 0.00 | 0.00 | 0.00 | 83 | 954.7 |
| 20260904094652 | 13 | 295 | 8.0 | 17.7 | 0.00 | 0.00 | 0.00 | 84 | 954.7 |
| 20260904094152 | 12 | 352 | 8.0 | 17.7 | 0.00 | 0.00 | 0.00 | 83 | 954.8 |
| 20260904093652 | 12 | 287 | 6.4 | 14.5 | 0.00 | 0.00 | 0.00 | 83 | 954.8 |
| 20260904093152 | 12 | 268 | 4.8 | 14.5 | 0.00 | 0.00 | 0.00 | 88 | 954.8 |
| 20260904092652 | 11 | 325 | 4.8 | 12.9 | 0.00 | 0.00 | 0.00 | 87 | 954.8 |
| 20260904092152 | 11 | 339 | 6.4 | 17.7 | 0.00 | 0.00 | 0.00 | 87 | 954.8 |
| 20260904091652 | 11 | 339 | 6.4 | 17.7 | 0.00 | 0.00 | 0.00 | 86 | 954.8 |
| 20260904091152 | 12 | 296 | 6.4 | 14.5 | 0.00 | 0.00 | 0.00 | 85 | 954.8 |
| 20260904090652 | 11 | 323 | 6.4 | 12.9 | 0.00 | 0.00 | 0.00 | 88 | 954.9 |
| 20260904090152 | 11 | 274 | 4.8 | 12.9 | 0.00 | 0.00 | 0.00 | 87 | 954.9 |
| 20260904085652 | 11 | 359 | 4.8 | 12.9 | 0.00 | 0.00 | 0.00 | 89 | 954.9 |
| 20260904085152 | 11 | 270 | 6.4 | 12.9 | 0.00 | 0.00 | 0.00 | 88 | 955.0 |
| 20260904084652 | 11 | 322 | 4.8 | 12.9 | 0.00 | 0.00 | 0.00 | 89 | 954.9 |
| 20260904084151 | 11 | 334 | 4.8 | 11.3 | 0.00 | 0.00 | 0.00 | 90 | 954.8 |
| 20260904083651 | 11 | 326 | 6.4 | 14.5 | 0.00 | 0.00 | 0.00 | 90 | 954.9 |
| 20260904083151 | 11 | 322 | 6.4 | 14.5 | 0.00 | 0.00 | 0.00 | 90 | 954.9 |
| 20260904082651 | 11 | 264 | 4.8 | 12.9 | 0.00 | 0.00 | 0.00 | 89 | 954.9 |
| 20260904082151 | 11 | 315 | 4.8 | 9.7 | 0.00 | 0.00 | 0.00 | 88 | 954.9 |
| 20260904081651 | 11 | 236 | 4.8 | 11.3 | 0.00 | 0.00 | 0.00 | 87 | 954.9 |
| 20260904081151 | 11 | 256 | 4.8 | 11.3 | 0.00 | 0.00 | 0.00 | 87 | 954.9 |
| 20260904080651 | 11 | 221 | 4.8 | 11.3 | 0.00 | 0.00 | 0.00 | 88 | 954.9 |
| 20260904080151 | 11 | 323 | 4.8 | 9.7 | 0.00 | 0.00 | 0.00 | 89 | 955.0 |
| 20260904075651 | 11 | 250 | 4.8 | 9.7 | 0.00 | 0.00 | 0.00 | 88 | 954.9 |
| 20260904075151 | 11 | 258 | 4.8 | 12.9 | 0.00 | 0.00 | 0.00 | 90 | 955.1 |
| 20260904074651 | 11 | 293 | 4.8 | 12.9 | 0.00 | 0.00 | 0.00 | 90 | 955.1 |
| 20260904074151 | 11 | 246 | 4.8 | 12.9 | 0.00 | 0.00 | 0.00 | 91 | 955.0 |
| 20260904073651 | 11 | 317 | 4.8 | 11.3 | 0.00 | 0.00 | 0.00 | 92 | 955.1 |
| 20260904073151 | 11 | 265 | 4.8 | 9.7 | 0.00 | 0.00 | 0.00 | 91 | 955.1 |
| 20260904072651 | 11 | 253 | 4.8 | 9.7 | 0.00 | 0.00 | 0.00 | 92 | 955.1 |
| 20260904072151 | 11 | 275 | 4.8 | 9.7 | 0.00 | 0.00 | 0.00 | 93 | 955.0 |
| 20260904071650 | 11 | 288 | 4.8 | 12.9 | 0.00 | 0.00 | 0.00 | 92 | 954.9 |
| 20260904071150 | 11 | 279 | 4.8 | 14.5 | 0.00 | 0.00 | 0.00 | 91 | 955.1 |
| 20260904070650 | 11 | 227 | 4.8 | 14.5 | 0.00 | 0.00 | 0.00 | 89 | 955.0 |
| 20260904070150 | 12 | 232 | 3.2 | 14.5 | 0.00 | 0.00 | 0.00 | 86 | 955.1 |
| 20260904065650 | 11 | 88 | 3.2 | 9.7 | 0.00 | 0.00 | 0.00 | 93 | 955.2 |
| 20260904065150 | 10 | 250 | 3.2 | 9.7 | 0.00 | 0.00 | 0.00 | 95 | 955.2 |
| 20260904064650 | 10 | 228 | 3.2 | 9.7 | 0.00 | 0.00 | 0.00 | 97 | 955.2 |
| 20260904064150 | 10 | 338 | 3.2 | 11.3 | 0.00 | 0.00 | 0.00 | 98 | 955.3 |
| 20260904063650 | 9 | 234 | 4.8 | 11.3 | 0.00 | 0.00 | 0.00 | 99 | 955.2 |
| 20260904063150 | 9 | 275 | 4.8 | 11.3 | 0.00 | 0.00 | 0.00 | 98 | 955.3 |
| 20260904062650 | 9 | 335 | 4.8 | 11.3 | 0.00 | 0.00 | 0.00 | 10 | 955.3 |
| 20260904062150 | 8 | 281 | 4.8 | 11.3 | 0.00 | 0.00 | 0.00 | 10 | 955.3 |
| 20260904061650 | 8 | 278 | 4.8 | 11.3 | 0.00 | 0.00 | 0.00 | 10 | 955.3 |
| 20260904061150 | 8 | 285 | 6.4 | 12.9 | 0.00 | 0.00 | 0.00 | 10 | 955.3 |
| 20260904060650 | 8 | 312 | 6.4 | 12.9 | 0.00 | 0.00 | 0.00 | 10 | 955.3 |
| 20260904060150 | 8 | 261 | 6.4 | 12.9 | 0.00 | 0.00 | 0.00 | 10 | 955.3 |
| 20260904055650 | 8 | 288 | 4.8 | 9.7 | 0.00 | 0.00 | 0.00 | 10 | 955.3 |
| 20260904055150 | 8 | 276 | 4.8 | 9.7 | 0.00 | 0.00 | 0.00 | 99 | 955.4 |
| 20260904054649 | 8 | 331 | 4.8 | 9.7 | 0.00 | 0.00 | 0.00 | 10 | 955.4 |
| 20260904054149 | 8 | 269 | 4.8 | 9.7 | 0.00 | 0.00 | 0.00 | 99 | 955.4 |
| 20260904053649 | 8 | 275 | 4.8 | 8.0 | 0.00 | 0.00 | 0.00 | 99 | 955.3 |
| 20260904053149 | 8 | 309 | 3.2 | 8.0 | 0.00 | 0.00 | 0.00 | 99 | 955.4 |
| 20260904052649 | 8 | 359 | 1.6 | 9.7 | 0.00 | 0.00 | 0.00 | 98 | 955.4 |
| 20260904052149 | 8 | 193 | 1.6 | 9.7 | 0.00 | 0.00 | 0.00 | 99 | 955.4 |
| 20260904051649 | 8 | 238 | 1.6 | 8.0 | 0.00 | 0.00 | 0.00 | 99 | 955.4 |
| 20260904051149 | 8 | 243 | 3.2 | 9.7 | 0.00 | 0.00 | 0.00 | 10 | 955.5 |
| 20260904050649 | 8 | 236 | 3.2 | 9.7 | 0.00 | 0.00 | 0.00 | 99 | 955.4 |
| 20260904050149 | 8 | 231 | 3.2 | 9.7 | 0.00 | 0.00 | 0.00 | 99 | 955.5 |
| 20260904045649 | 8 | 225 | 1.6 | 9.7 | 0.00 | 0.00 | 0.00 | 99 | 955.5 |
| 20260904045149 | 8 | 256 | 3.2 | 9.7 | 0.00 | 0.00 | 0.00 | 10 | 955.6 |
| 20260904044649 | 8 | 149 | 3.2 | 9.7 | 0.00 | 0.00 | 0.00 | 10 | 955.6 |
| 20260904044149 | 8 | 232 | 4.8 | 12.9 | 0.00 | 0.00 | 0.00 | 10 | 955.6 |
| 20260904043649 | 8 | 104 | 3.2 | 12.9 | 0.00 | 0.00 | 0.00 | 10 | 955.6 |
| 20260904043148 | 8 | 217 | 3.2 | 11.3 | 0.00 | 0.00 | 0.00 | 10 | 955.4 |
| 20260904042648 | 8 | 283 | 4.8 | 11.3 | 0.00 | 0.00 | 0.00 | 10 | 955.5 |
| 20260904042148 | 8 | 235 | 4.8 | 11.3 | 0.00 | 0.00 | 0.00 | 10 | 955.5 |
| 20260904041648 | 8 | 242 | 4.8 | 11.3 | 0.00 | 0.00 | 0.00 | 10 | 955.5 |
| 20260904041148 | 8 | 243 | 4.8 | 11.3 | 0.00 | 0.00 | 0.00 | 10 | 955.5 |
| 20260904040648 | 8 | 242 | 4.8 | 14.5 | 0.00 | 0.00 | 0.00 | 10 | 955.5 |
| 20260904040148 | 8 | 224 | 4.8 | 14.5 | 0.00 | 0.00 | 0.00 | 10 | 955.5 |
| 20260904035648 | 8 | 46 | 3.2 | 14.5 | 0.00 | 0.00 | 0.00 | 10 | 955.4 |
| 20260904035148 | 8 | 189 | 3.2 | 12.9 | 0.00 | 0.00 | 0.00 | 10 | 955.5 |
| 20260904034648 | 8 | 218 | 1.6 | 11.3 | 0.00 | 0.00 | 0.00 | 10 | 955.6 |
| 20260904034148 | 8 | 208 | 1.6 | 11.3 | 0.00 | 0.00 | 0.00 | 10 | 955.6 |
| 20260904033648 | 7 | 87 | 1.6 | 8.0 | 0.00 | 0.00 | 0.00 | 10 | 955.5 |
| 20260904033147 | 7 | 98 | 3.2 | 11.3 | 0.00 | 0.00 | 0.00 | 10 | 955.5 |
| 20260904032647 | 7 | 109 | 3.2 | 12.9 | 0.00 | 0.00 | 0.00 | 10 | 955.5 |
| 20260904032147 | 7 | 268 | 3.2 | 12.9 | 0.00 | 0.00 | 0.00 | 10 | 955.5 |
| 20260904031647 | 7 | 62 | 1.6 | 12.9 | 0.00 | 0.00 | 0.00 | 10 | 955.5 |
| 20260904031147 | 7 | 161 | 3.2 | 14.5 | 0.00 | 0.00 | 0.00 | 10 | 955.5 |
| 20260904030647 | 7 | 118 | 3.2 | 14.5 | 0.00 | 0.00 | 0.00 | 10 | 955.7 |
| 20260904030147 | 8 | 72 | 1.6 | 9.7 | 0.00 | 0.00 | 0.00 | 10 | 955.7 |
| 20260904025647 | 8 | 98 | 1.6 | 9.7 | 0.00 | 0.00 | 0.00 | 10 | 955.7 |
| 20260904025147 | 7 | 204 | 3.2 | 9.7 | 0.00 | 0.00 | 0.00 | 10 | 955.7 |
| 20260904024647 | 7 | 110 | 3.2 | 8.0 | 0.00 | 0.00 | 0.00 | 10 | 955.7 |
| 20260904024147 | 7 | 176 | 1.6 | 6.4 | 0.00 | 0.00 | 0.00 | 10 | 955.7 |
| 20260904023647 | 7 | 57 | 1.6 | 6.4 | 0.00 | 0.00 | 0.00 | 10 | 955.8 |
| 20260904023147 | 7 | 46 | 1.6 | 8.0 | 0.00 | 0.00 | 0.00 | 10 | 955.8 |
| 20260904022647 | 7 | 50 | 1.6 | 8.0 | 0.00 | 0.00 | 0.00 | 10 | 955.9 |
| 20260904022146 | 7 | 34 | 1.6 | 6.4 | 0.00 | 0.00 | 0.00 | 10 | 955.7 |
| 20260904021646 | 7 | 96 | 1.6 | 6.4 | 0.00 | 0.00 | 0.00 | 10 | 955.8 |
| 20260904021146 | 7 | 278 | 1.6 | 8.0 | 0.00 | 0.00 | 0.00 | 10 | 955.8 |
| 20260904020647 | 7 | 340 | 1.6 | 8.0 | 0.00 | 0.00 | 0.00 | 10 | 955.9 |
| 20260904020147 | 7 | 54 | 3.2 | 9.7 | 0.00 | 0.00 | 0.00 | 10 | 955.9 |
| 20260904015647 | 7 | 74 | 3.2 | 9.7 | 0.00 | 0.00 | 0.00 | 10 | 955.9 |
| 20260904015146 | 8 | 273 | 3.2 | 9.7 | 0.00 | 0.00 | 0.00 | 10 | 956.0 |
| 20260904014646 | 8 | 80 | 3.2 | 9.7 | 0.00 | 0.00 | 0.00 | 10 | 956.0 |
| 20260904014146 | 8 | 89 | 1.6 | 11.3 | 0.00 | 0.00 | 0.00 | 10 | 956.2 |
| 20260904013646 | 8 | 25 | 1.6 | 11.3 | 0.00 | 0.00 | 0.00 | 10 | 956.2 |
| 20260904013146 | 8 | 199 | 1.6 | 8.0 | 0.00 | 0.00 | 0.00 | 10 | 956.1 |
| 20260904012646 | 8 | 59 | 1.6 | 8.0 | 0.00 | 0.00 | 0.00 | 10 | 956.2 |
| 20260904012146 | 7 | 101 | 1.6 | 8.0 | 0.00 | 0.00 | 0.00 | 10 | 956.3 |
| 20260904011646 | 7 | 63 | 1.6 | 8.0 | 0.00 | 0.00 | 0.00 | 10 | 956.3 |
| 20260904011146 | 7 | 62 | 1.6 | 8.0 | 0.00 | 0.00 | 0.00 | 10 | 956.2 |
| 20260904010646 | 7 | 184 | 1.6 | 8.0 | 0.00 | 0.00 | 0.00 | 10 | 956.3 |
| 20260904010146 | 7 | 77 | 1.6 | 12.9 | 0.00 | 0.00 | 0.00 | 10 | 956.3 |
| 20260904005646 | 7 | 8 | 3.2 | 12.9 | 0.00 | 0.00 | 0.00 | 10 | 956.3 |
| 20260904005146 | 7 | 195 | 3.2 | 11.3 | 0.00 | 0.00 | 0.00 | 10 | 956.3 |
| 20260904004646 | 8 | 181 | 3.2 | 11.3 | 0.00 | 0.00 | 0.00 | 10 | 956.2 |
| 20260904004146 | 8 | 35 | 3.2 | 11.3 | 0.00 | 0.00 | 0.00 | 10 | 956.4 |
| 20260904003646 | 8 | 121 | 3.2 | 12.9 | 0.00 | 0.00 | 0.00 | 10 | 956.4 |
| 20260904003145 | 8 | 136 | 3.2 | 12.9 | 0.00 | 0.00 | 0.00 | 10 | 956.5 |
| 20260904002645 | 8 | 136 | 3.2 | 8.0 | 0.00 | 0.00 | 0.00 | 10 | 956.5 |
| 20260904002145 | 8 | 140 | 3.2 | 11.3 | 0.00 | 0.00 | 0.00 | 10 | 956.4 |
| 20260904001645 | 8 | 31 | 3.2 | 11.3 | 0.00 | 0.00 | 0.00 | 10 | 956.5 |
| 20260904001145 | 8 | 52 | 3.2 | 17.7 | 0.00 | 0.00 | 0.00 | 10 | 956.4 |
| 20260904000645 | 8 | 103 | 3.2 | 17.7 | 0.00 | 0.00 | 0.00 | 10 | 956.5 |
| 20260904000145 | 8 | 54 | 3.2 | 12.9 | 0.00 | 0.00 | 0.00 | 10 | 956.5 |
| 20260903235645 | 8 | 86 | 3.2 | 11.3 | 0.00 | 0.00 | 0.00 | 10 | 956.5 |
| 20260903235145 | 8 | 108 | 3.2 | 11.3 | 0.00 | 0.00 | 0.00 | 10 | 956.4 |
| 20260903234645 | 8 | 125 | 3.2 | 11.3 | 0.00 | 0.00 | 0.00 | 10 | 956.5 |
| 20260903234145 | 8 | 72 | 4.8 | 17.7 | 0.00 | 0.00 | 0.00 | 10 | 956.6 |
| 20260903233645 | 8 | 148 | 4.8 | 17.7 | 0.00 | 0.00 | 0.00 | 10 | 956.6 |
| 20260903233145 | 8 | 182 | 4.8 | 14.5 | 0.00 | 0.00 | 0.00 | 10 | 956.7 |
| 20260903232644 | 8 | 226 | 3.2 | 12.9 | 0.00 | 0.00 | 0.00 | 10 | 956.7 |
| 20260903232144 | 8 | 185 | 3.2 | 12.9 | 0.00 | 0.00 | 0.00 | 10 | 956.6 |
| 20260903231644 | 8 | 27 | 3.2 | 12.9 | 0.00 | 0.00 | 0.00 | 10 | 956.7 |
| 20260903231144 | 8 | 53 | 3.2 | 12.9 | 0.00 | 0.00 | 0.00 | 10 | 956.8 |
| 20260903230644 | 8 | 95 | 3.2 | 12.9 | 0.00 | 0.00 | 0.00 | 10 | 956.8 |
| 20260903230144 | 8 | 189 | 1.6 | 8.0 | 0.00 | 0.00 | 0.00 | 10 | 956.8 |
| 20260903225644 | 8 | 148 | 1.6 | 6.4 | 0.00 | 0.00 | 0.00 | 10 | 956.8 |
| 20260903225144 | 8 | 95 | 1.6 | 6.4 | 0.00 | 0.00 | 0.00 | 10 | 957.0 |
| 20260903224644 | 9 | 154 | 1.6 | 6.4 | 0.00 | 0.00 | 0.00 | 10 | 956.9 |
| 20260903224144 | 8 | 158 | 1.6 | 6.4 | 0.00 | 0.00 | 0.00 | 10 | 957.0 |
| 20260903223644 | 8 | 157 | 1.6 | 8.0 | 0.00 | 0.00 | 0.00 | 10 | 957.0 |
| 20260903223144 | 8 | 126 | 3.2 | 9.7 | 0.00 | 0.00 | 0.00 | 10 | 956.9 |
| 20260903222644 | 8 | 154 | 3.2 | 9.7 | 0.00 | 0.00 | 0.00 | 10 | 956.9 |
| 20260903222144 | 8 | 107 | 1.6 | 9.7 | 0.00 | 0.00 | 0.00 | 10 | 956.9 |
| 20260903221644 | 8 | 79 | 1.6 | 9.7 | 0.00 | 0.00 | 0.00 | 10 | 956.9 |
| 20260903221144 | 8 | 56 | 1.6 | 11.3 | 0.00 | 0.00 | 0.00 | 10 | 957.0 |
| 20260903220644 | 8 | 119 | 3.2 | 14.5 | 0.00 | 0.00 | 0.00 | 10 | 957.1 |
| 20260903220144 | 8 | 83 | 3.2 | 14.5 | 0.00 | 0.00 | 0.00 | 10 | 957.0 |
| 20260903215643 | 8 | 85 | 3.2 | 12.9 | 0.00 | 0.00 | 0.00 | 10 | 957.0 |
| 20260903215143 | 8 | 99 | 3.2 | 12.9 | 0.00 | 0.00 | 0.00 | 10 | 956.8 |
| 20260903214643 | 9 | 205 | 4.8 | 14.5 | 0.00 | 0.00 | 0.00 | 10 | 956.8 |
| 20260903214143 | 9 | 152 | 4.8 | 14.5 | 0.00 | 0.00 | 0.00 | 10 | 956.7 |
| 20260903213643 | 9 | 210 | 3.2 | 14.5 | 0.00 | 0.00 | 0.00 | 10 | 957.0 |
| 20260903213143 | 9 | 220 | 3.2 | 14.5 | 0.00 | 0.00 | 0.00 | 10 | 956.9 |
| 20260903212643 | 9 | 220 | 3.2 | 12.9 | 0.00 | 0.00 | 0.00 | 10 | 956.9 |
| 20260903212143 | 9 | 95 | 3.2 | 12.9 | 0.00 | 0.00 | 0.00 | 10 | 956.9 |
| 20260903211643 | 9 | 70 | 3.2 | 14.5 | 0.00 | 0.00 | 0.00 | 10 | 956.8 |
| 20260903211143 | 9 | 131 | 3.2 | 14.5 | 0.00 | 0.00 | 0.00 | 10 | 956.8 |
| 20260903210643 | 9 | 87 | 3.2 | 11.3 | 0.00 | 0.00 | 0.00 | 10 | 956.8 |
| 20260903210143 | 9 | 48 | 3.2 | 9.7 | 0.00 | 0.00 | 0.00 | 10 | 956.9 |
| 20260903205643 | 9 | 122 | 3.2 | 9.7 | 0.00 | 0.00 | 0.00 | 10 | 957.0 |
| 20260903205143 | 9 | 81 | 3.2 | 9.7 | 0.00 | 0.00 | 0.00 | 10 | 956.9 |
| 20260903204642 | 9 | 110 | 3.2 | 12.9 | 0.00 | 0.00 | 0.00 | 10 | 956.9 |
| 20260903204142 | 9 | 137 | 3.2 | 14.5 | 0.00 | 0.00 | 0.00 | 10 | 957.0 |
| 20260903203642 | 9 | 92 | 3.2 | 14.5 | 0.00 | 0.00 | 0.00 | 10 | 956.9 |
| 20260903203142 | 9 | 69 | 3.2 | 12.9 | 0.00 | 0.00 | 0.00 | 10 | 957.0 |
| 20260903202642 | 9 | 164 | 4.8 | 12.9 | 0.00 | 0.00 | 0.00 | 10 | 957.0 |
| 20260903202142 | 9 | 120 | 4.8 | 14.5 | 0.00 | 0.00 | 0.00 | 10 | 956.9 |
| 20260903201642 | 9 | 57 | 3.2 | 17.7 | 0.00 | 0.00 | 0.00 | 10 | 956.9 |
| 20260903201142 | 9 | 153 | 3.2 | 17.7 | 0.00 | 0.00 | 0.00 | 10 | 957.0 |
| 20260903200642 | 9 | 55 | 3.2 | 12.9 | 0.00 | 0.00 | 0.00 | 10 | 956.9 |
| 20260903200142 | 9 | 143 | 3.2 | 11.3 | 0.00 | 0.00 | 0.00 | 10 | 957.0 |
| 20260903195642 | 9 | 104 | 3.2 | 11.3 | 0.00 | 0.00 | 0.00 | 10 | 957.0 |
| 20260903195142 | 9 | 144 | 3.2 | 12.9 | 0.00 | 0.00 | 0.00 | 10 | 956.9 |
| 20260903194642 | 9 | 57 | 3.2 | 14.5 | 0.00 | 0.00 | 0.00 | 10 | 957.1 |
| 20260903194142 | 9 | 89 | 3.2 | 14.5 | 0.00 | 0.00 | 0.00 | 10 | 957.1 |
| 20260903193642 | 9 | 85 | 1.6 | 14.5 | 0.00 | 0.00 | 0.00 | 10 | 957.1 |
| 20260903193142 | 9 | 125 | 1.6 | 8.0 | 0.00 | 0.00 | 0.00 | 10 | 957.1 |
| 20260903192612 | 10 | 71 | 1.6 | 11.3 | 0.00 | 0.00 | 0.00 | 10 | 957.0 |
| 20260903192112 | 9 | 108 | 3.2 | 12.9 | 0.00 | 0.00 | 0.00 | 10 | 957.0 |
| 20260903191611 | 10 | 162 | 4.8 | 14.5 | 0.00 | 0.00 | 0.00 | 10 | 957.0 |